Change the Weather History Date:

Friday, March 22, 2013

  Actual Average Record
Temperature  
Mean Temperature 28 °F -  
Max Temperature 31 °F 47 °F 66 °F (2012)
Min Temperature 25 °F 31 °F 10 °F (2014)
Degree Days  
Heating Degree Days 37    
Moisture  
Dew Point 24 °F    
Average Humidity 82    
Maximum Humidity 90    
Minimum Humidity 73    
Precipitation  
Precipitation 0.00 in - - ()
Sea Level Pressure  
Sea Level Pressure 29.98 in    
Wind  
Wind Speed 11 mph (NW)    
Max Wind Speed 15 mph    
Max Gust Speed 21 mph    
Visibility 10 miles    
Events      
Averages and records for this station are not official NWS values.
T = Trace of Precipitation, MM = Missing Value Source: NWS Daily Summary

Daily Weather History Graph

Daily Weather History Graph

Search for Another Location

Airport or City:

Trip Planner

Search our weather history database for the weather conditions in past years. The results will help you decide how hot, cold, wet, or windy it might be!

Date:

Astronomy

Mar. 22, 2013 Rise Set
Actual Time 7:39 AM EDT 7:56 PM EDT
Civil Twilight 7:10 AM EDT 8:26 PM EDT
Nautical Twilight 6:35 AM EDT 9:00 PM EDT
Astronomical Twilight 6:00 AM EDT 9:36 PM EDT
Moon 3:11 PM EDT (3/22) 4:51 AM EDT (3/22)
Length of Visible Light 13h 15m
Length of Day
12h 16m
Waxing Gibbous, 77% of the Moon is Illuminated
Mar 22
Waxing Gibbous
Mar 27
Full
Apr 3
Last Quarter
Apr 10
New
Apr 18
First Quarter

Hourly Weather History & Observations

Time (EDT) Temp. Windchill Dew Point Humidity Pressure Visibility Wind Dir Wind Speed Gust Speed Precip Events Conditions
12:15 AM 25.7 °F 14.6 °F 19.4 °F 77% 29.96 in 10.0 mi NW 12.7 mph 18.4 mph N/A   Overcast
12:34 AM 25.7 °F 14.6 °F 19.4 °F 77% 29.96 in 10.0 mi NW 12.7 mph 20.7 mph N/A   Overcast
12:54 AM 25.7 °F 14.6 °F 19.8 °F 78% 29.96 in 10.0 mi NW 12.7 mph - N/A   Overcast
1:15 AM 25.9 °F 16.0 °F 19.9 °F 78% 29.95 in 10.0 mi NW 10.4 mph - N/A   Overcast
1:34 AM 26.2 °F 15.8 °F 20.1 °F 78% 29.95 in 10.0 mi NW 11.5 mph - N/A   Overcast
1:55 AM 26.4 °F 15.0 °F 21.0 °F 80% 29.95 in 10.0 mi WNW 13.8 mph - N/A   Overcast
2:15 AM 26.6 °F 15.7 °F 21.2 °F 80% 29.94 in 10.0 mi WNW 12.7 mph 18.4 mph N/A   Overcast
2:34 AM 27.1 °F 15.9 °F 21.7 °F 80% 29.94 in 10.0 mi WNW 13.8 mph 18.4 mph N/A   Overcast
2:55 AM 27.5 °F 15.9 °F 21.9 °F 80% 29.94 in 10.0 mi WNW 15.0 mph 20.7 mph N/A   Overcast
3:14 AM 27.5 °F 16.3 °F 22.5 °F 81% 29.94 in 10.0 mi WNW 13.8 mph - N/A   Overcast
3:35 AM 27.3 °F 16.6 °F 22.5 °F 82% 29.94 in 10.0 mi WNW 12.7 mph - N/A   Overcast
3:54 AM 26.4 °F 14.5 °F 22.5 °F 85% 29.94 in 10.0 mi WNW 15.0 mph 18.4 mph N/A   Overcast
4:14 AM 26.6 °F 16.2 °F 22.8 °F 86% 29.94 in 10.0 mi WNW 11.5 mph 20.7 mph N/A   Overcast
4:35 AM 26.4 °F 15.0 °F 23.0 °F 87% 29.94 in 10.0 mi West 13.8 mph - N/A   Overcast
4:54 AM 26.6 °F 14.7 °F 23.2 °F 87% 29.94 in 10.0 mi West 15.0 mph - N/A   Overcast
5:15 AM 26.6 °F 15.2 °F 23.4 °F 88% 29.94 in 10.0 mi WNW 13.8 mph - N/A   Overcast
5:34 AM 26.6 °F 16.8 °F 23.9 °F 90% 29.94 in 10.0 mi WNW 10.4 mph - N/A   Overcast
5:55 AM 27.5 °F 18.0 °F 24.4 °F 88% 29.94 in 10.0 mi WNW 10.4 mph - N/A   Overcast
6:14 AM 28.0 °F 18.6 °F 24.8 °F 88% 29.94 in 10.0 mi WNW 10.4 mph - N/A   Overcast
6:34 AM 28.2 °F 18.9 °F 24.8 °F 87% 29.94 in 10.0 mi NW 10.4 mph - N/A   Overcast
6:54 AM 28.4 °F 20.4 °F 24.3 °F 84% 29.94 in 10.0 mi NNW 8.1 mph - N/A   Overcast
7:14 AM 28.4 °F 19.7 °F 23.7 °F 83% 29.95 in 10.0 mi NNW 9.2 mph - N/A   Overcast
7:34 AM 28.4 °F 18.5 °F 23.9 °F 83% 29.96 in 10.0 mi NNW 11.5 mph - N/A   Overcast
7:55 AM 28.4 °F 18.5 °F 23.5 °F 82% 29.96 in 10.0 mi North 11.5 mph 16.1 mph N/A   Overcast
8:15 AM 28.2 °F 18.3 °F 23.4 °F 82% 29.96 in 10.0 mi NNW 11.5 mph - N/A   Overcast
8:34 AM 28.4 °F 19.7 °F 23.9 °F 83% 29.97 in 10.0 mi NNW 9.2 mph - N/A   Overcast
8:55 AM 28.0 °F 18.1 °F 24.1 °F 85% 29.97 in 10.0 mi NNW 11.5 mph - N/A   Overcast
9:15 AM 27.9 °F 19.8 °F 23.9 °F 85% 29.97 in 10.0 mi North 8.1 mph - N/A   Overcast
9:34 AM 28.0 °F 20.0 °F 24.1 °F 85% 29.97 in 10.0 mi NNW 8.1 mph - N/A   Overcast
9:55 AM 28.0 °F 20.0 °F 24.3 °F 86% 29.97 in 10.0 mi NNW 8.1 mph - N/A   Overcast
10:15 AM 28.2 °F 20.2 °F 24.3 °F 85% 29.97 in 10.0 mi NW 8.1 mph - N/A   Overcast
10:34 AM 28.4 °F 19.7 °F 24.6 °F 86% 29.97 in 10.0 mi NW 9.2 mph - N/A   Overcast
10:55 AM 28.4 °F 19.7 °F 24.6 °F 86% 29.97 in 10.0 mi NW 9.2 mph - N/A   Overcast
11:14 AM 28.4 °F 20.4 °F 24.6 °F 86% 29.97 in 10.0 mi NW 8.1 mph - N/A   Overcast
11:34 AM 28.8 °F 20.9 °F 24.6 °F 84% 29.97 in 10.0 mi NW 8.1 mph - N/A   Overcast
11:55 AM 28.9 °F 21.1 °F 25.3 °F 86% 29.97 in 10.0 mi NNW 8.1 mph - N/A   Overcast
12:14 PM 28.6 °F 19.3 °F 25.5 °F 88% 29.98 in 10.0 mi North 10.4 mph - N/A   Overcast
12:34 PM 28.4 °F 19.7 °F 25.3 °F 88% 29.98 in 10.0 mi North 9.2 mph - N/A   Overcast
12:55 PM 28.6 °F 20.7 °F 24.8 °F 86% 29.97 in 10.0 mi North 8.1 mph - N/A   Overcast
1:14 PM 28.9 °F 21.9 °F 24.8 °F 84% 29.98 in 10.0 mi NNW 6.9 mph - N/A   Overcast
1:35 PM 28.9 °F 21.1 °F 24.8 °F 84% 29.98 in 10.0 mi North 8.1 mph - N/A   Overcast
1:54 PM 29.1 °F 22.1 °F 24.8 °F 84% 29.99 in 10.0 mi NNW 6.9 mph - N/A   Overcast
2:15 PM 29.3 °F 23.2 °F 25.2 °F 85% 29.98 in 10.0 mi North 5.8 mph - N/A   Overcast
2:35 PM 29.8 °F 22.2 °F 25.3 °F 83% 29.98 in 10.0 mi NNW 8.1 mph - N/A   Overcast
2:54 PM 29.8 °F 23.9 °F 24.6 °F 81% 29.99 in 10.0 mi NNW 5.8 mph - N/A   Overcast
3:15 PM 30.6 °F 23.8 °F 25.2 °F 80% 29.99 in 10.0 mi NNW 6.9 mph - N/A   Overcast
3:35 PM 30.6 °F 23.8 °F 24.6 °F 79% 29.99 in 10.0 mi NNW 6.9 mph - N/A   Overcast
3:54 PM 30.7 °F 23.3 °F 24.6 °F 78% 29.99 in 10.0 mi NW 8.1 mph - N/A   Overcast
4:15 PM 31.6 °F 23.7 °F 25.2 °F 77% 29.99 in 10.0 mi WNW 9.2 mph - N/A   Overcast
4:35 PM 31.6 °F 22.6 °F 25.7 °F 79% 29.99 in 10.0 mi WNW 11.5 mph - N/A   Overcast
4:54 PM 31.8 °F 23.9 °F 25.9 °F 79% 30.00 in 10.0 mi WNW 9.2 mph - N/A   Overcast
5:15 PM 31.6 °F 23.7 °F 25.5 °F 78% 30.00 in 10.0 mi WNW 9.2 mph - N/A   Overcast
5:34 PM 31.6 °F 23.1 °F 25.3 °F 78% 30.00 in 10.0 mi West 10.4 mph - N/A   Overcast
5:54 PM 31.8 °F 22.3 °F 25.2 °F 76% 30.00 in 10.0 mi WNW 12.7 mph - N/A   Overcast
6:15 PM 31.1 °F 23.1 °F 24.8 °F 77% 30.00 in 10.0 mi WNW 9.2 mph - N/A   Overcast
6:34 PM 31.3 °F 22.7 °F 25.3 °F 79% 30.00 in 10.0 mi WNW 10.4 mph - N/A   Overcast
6:54 PM 31.1 °F 24.5 °F 25.7 °F 80% 30.00 in 10.0 mi WNW 6.9 mph - N/A   Overcast
7:14 PM 31.6 °F 23.7 °F 24.6 °F 75% 30.01 in 10.0 mi WNW 9.2 mph - N/A   Overcast
7:34 PM 31.6 °F 24.4 °F 23.9 °F 73% 30.02 in 10.0 mi NW 8.1 mph - N/A   Overcast
7:55 PM 31.5 °F 24.9 °F 24.4 °F 75% 30.02 in 10.0 mi NNW 6.9 mph - N/A   Overcast
8:14 PM 31.1 °F 21.9 °F 24.1 °F 75% 30.03 in 10.0 mi NNW 11.5 mph - N/A   Overcast
8:35 PM 30.9 °F 22.2 °F 23.9 °F 75% 30.03 in 10.0 mi NW 10.4 mph - N/A   Overcast
8:54 PM 30.2 °F 22.6 °F 23.2 °F 75% 30.04 in 10.0 mi NW 8.1 mph - N/A   Overcast
9:14 PM 30.2 °F 23.4 °F 23.4 °F 76% 30.05 in 10.0 mi WNW 6.9 mph - N/A   Overcast
9:34 PM 30.0 °F 20.5 °F 25.5 °F 83% 30.05 in 10.0 mi North 11.5 mph - N/A   Overcast
9:54 PM 29.5 °F 21.1 °F 26.2 °F 88% 30.06 in 7.0 mi NNW 9.2 mph 16.1 mph N/A   Overcast
10:14 PM 29.3 °F 20.2 °F 25.5 °F 86% 30.06 in 10.0 mi North 10.4 mph - N/A   Overcast
10:34 PM 29.3 °F 20.2 °F 24.6 °F 83% 30.07 in 10.0 mi NNW 10.4 mph - N/A   Overcast
10:55 PM 28.9 °F 21.1 °F 22.6 °F 77% 30.07 in 10.0 mi North 8.1 mph - N/A   Overcast
11:14 PM 29.1 °F 19.4 °F 23.9 °F 81% 30.07 in 10.0 mi NNW 11.5 mph - N/A   Overcast
11:34 PM 28.4 °F 20.4 °F 23.9 °F 83% 30.07 in 10.0 mi NNW 8.1 mph - N/A   Overcast
11:55 PM 28.2 °F 20.2 °F 23.7 °F 83% 30.07 in 10.0 mi NNW 8.1 mph - N/A   Overcast